Location: Paderno d�Adda
(45.6667°N, 9.4333°E)
Time: 05:58:24
(UTC+00:00)

CENTAUR R/B - Pass Details

Date: 19 January 2021
Orbit: 742 x 1446 km, 63.5° (Epoch: 02 March)

Event Time Altitude Azimuth Distance (km) Brightness Sun altitude
Rises 17:22:37 0° 308° (NW) 4,325 6.4 -12.5°
Reaches altitude 10° 17:27:00 10° 287° (WNW) 3,451 6.3 -13.2°
Maximum altitude 17:31:11 15° 257° (WSW) 3,156 6.4 -14.0°
Drops below altitude 10° 17:35:30 10° 228° (SW) 3,548 6.4 -14.7°
Sets 17:40:10 0° 207° (SSW) 4,524 6.6 -15.5°
